RH
99 99 98 95 97 96 97 98 99 99 96 93 94 96 94 90 91 89 81 77 67 47 33 27 26 25 25 25 23 23 21 19 18 17 17 15 14 13 12 11 11 11 11 11 11 12 12 12 12 12 11 11
96 98 100 99 98 97 99 99 99 97 92 91 91 93 93 92 92 90 86 84 77 62 45 35 34 34 34 32 30 29 26 24 21 18 17 16 14 13 13 13 13 13 13 14 14 15 15 15 15 15 15 15
92 95 99 100 99 99 100 98 97 95 90 88 88 89 89 90 90 89 87 86 83 73 60 49 43 43 45 43 39 39 38 34 30 25 20 18 18 17 16 15 17 17 16 16 16 17 16 16 16 16 16 16
94 94 97 99 99 100 98 96 95 92 89 86 85 85 83 82 85 86 83 82 82 76 70 64 57 55 55 52 49 49 49 44 40 37 29 23 21 20 18 18 20 18 16 17 16 16 15 15 15 15 15 14
96 96 98 99 100 100 98 98 96 92 90 87 86 88 85 80 81 84 82 79 79 76 73 70 68 67 63 58 56 57 59 53 48 45 39 32 25 21 19 19 20 18 16 15 14 14 13 13 13 13 13 12
96 97 98 100 100 100 100 100 98 94 90 90 92 93 88 81 78 78 79 79 79 79 75 70 71 71 68 64 59 60 62 59 53 50 45 40 33 27 23 18 15 14 14 14 12 12 10 10 10 10 10 9
97 96 96 99 100 99 99 99 99 96 91 91 96 94 86 80 77 75 74 74 77 81 80 77 77 74 72 71 66 65 67 65 62 58 53 49 47 44 41 34 24 15 10 8 9 9 8 7 7 6 6 6
98 98 97 97 100 100 97 97 98 95 91 95 99 96 88 80 78 76 72 72 74 78 80 81 82 82 80 79 75 74 74 72 69 68 65 62 61 59 58 57 51 41 29 17 8 5 4 3 4 4 3 3
100 100 98 97 99 100 99 97 94 90 91 98 99 99 95 88 86 79 67 65 68 72 75 76 78 80 81 81 79 77 75 74 72 70 69 69 67 65 65 65 64 62 56 45 32 20 10 4 3 2 1 2
99 100 98 98 99 99 100 99 94 88 93 100 97 99 100 94 92 82 65 58 59 62 66 69 71 73 75 75 75 75 72 70 69 65 63 63 62 62 63 62 61 61 60 56 48 36 24 15 9 4 1 1
93 98 99 98 98 98 100 99 97 93 95 100 98 99 100 93 89 78 64 57 57 59 61 63 63 65 67 67 68 68 69 68 65 61 58 57 55 55 55 54 52 49 48 45 37 28 21 17 12 7 3 2
84 93 99 100 98 99 100 97 98 99 98 99 100 99 98 96 88 71 60 56 56 57 59 60 60 60 58 56 55 56 60 63 60 57 54 51 47 45 45 43 39 32 28 25 21 15 10 7 6 4 3 2
80 88 93 97 99 100 98 98 99 99 100 100 99 99 98 99 90 72 61 56 52 53 54 56 57 57 54 50 47 47 49 52 50 47 46 43 38 35 32 28 23 17 12 9 7 5 4 2 2 2 2 1
78 86 91 92 97 97 91 96 100 97 98 97 95 97 100 96 85 74 65 55 50 49 50 49 48 47 45 44 42 40 41 42 40 39 38 35 31 29 25 19 13 8 5 3 2 1 1 1 1 1 1 2
75 85 93 91 93 90 82 87 92 94 96 95 91 91 97 91 74 67 62 53 49 46 44 42 41 39 38 37 36 36 35 36 36 36 35 33 30 27 23 17 12 8 4 2 1 1 1 1 2 2 2 2
60 76 88 87 91 88 82 84 89 95 93 88 88 86 91 86 66 57 56 54 52 47 43 42 41 41 40 37 34 34 34 34 35 36 36 34 32 29 26 18 13 10 7 4 2 1 2 1 2 2 2 3
51 65 81 84 89 92 88 82 81 89 87 77 81 86 86 82 68 58 57 59 60 56 53 52 52 52 52 50 46 42 39 39 38 37 36 34 32 31 29 22 15 11 7 4 2 1 2 2 2 2 2 3
51 62 80 88 89 91 88 83 76 74 77 70 71 82 83 80 74 66 62 62 63 62 60 61 62 64 64 64 63 58 54 51 49 46 42 38 33 31 29 24 16 9 5 3 2 2 2 2 2 2 3 3
39 50 69 85 93 90 81 84 83 72 70 67 70 82 83 79 79 77 76 73 71 70 70 70 71 71 69 66 64 63 61 58 55 53 49 45 39 33 30 24 15 8 5 3 2 2 2 2 2 3 3 3
32 36 48 67 81 86 80 82 88 84 76 71 77 82 79 81 89 92 93 90 85 83 82 79 75 71 66 63 61 60 60 57 56 53 50 48 43 37 33 26 17 10 5 3 2 2 2 2 2 3 3 3
28 30 33 45 58 75 86 84 85 88 84 84 88 85 82 89 96 99 100 98 95 91 87 83 78 73 67 60 57 58 62 60 57 55 51 47 44 39 35 30 20 11 6 3 2 2 2 2 3 3 3 3
25 38 38 34 41 63 84 88 89 93 92 94 98 94 94 98 98 100 100 99 99 96 92 90 86 83 76 66 57 54 59 61 57 54 51 46 44 40 37 32 22 12 6 3 3 3 2 3 3 3 3 4
48 63 66 51 43 49 64 77 85 88 89 94 100 98 96 94 94 98 98 95 97 99 98 97 94 91 86 78 70 60 56 59 58 56 53 47 43 39 37 34 24 13 7 4 3 3 3 3 3 3 4 4
78 80 78 69 60 50 48 56 63 66 75 90 95 90 89 90 91 94 93 93 96 99 99 100 98 94 89 85 81 73 63 64 69 68 62 56 48 41 36 34 29 19 11 5 3 3 3 3 3 3 4 4
72 87 88 83 78 67 50 43 50 54 62 85 94 85 85 89 90 92 93 97 99 96 96 101 100 92 87 87 87 83 77 81 87 79 68 64 57 47 40 36 32 26 15 7 4 4 3 3 4 3 3 4
35 59 77 89 95 93 70 40 39 47 55 78 93 90 89 88 87 90 92 96 96 92 95 101 100 94 89 92 95 91 85 83 82 76 72 73 68 57 47 40 35 30 21 10 5 4 4 3 3 4 3 4
17 24 38 57 73 86 80 52 38 44 53 72 88 90 90 89 91 94 94 95 93 90 95 98 100 100 96 99 100 91 83 77 75 77 77 82 86 76 63 50 39 34 27 15 7 4 4 5 4 4 4 4
17 19 22 30 37 45 52 49 43 45 52 66 85 93 90 87 91 94 95 99 98 95 95 97 99 100 99 101 100 92 89 88 90 92 86 88 98 94 78 61 47 40 33 22 12 7 4 4 5 4 4 5
17 19 22 25 29 30 31 35 37 42 54 66 80 92 94 94 93 92 92 94 98 99 99 99 99 99 99 100 100 97 97 99 99 100 97 95 99 95 82 69 59 51 44 34 20 11 7 5 4 5 4 5
20 21 22 23 27 30 33 37 38 41 52 69 82 86 89 95 93 89 89 91 95 98 100 100 99 99 100 100 100 99 99 101 99 99 100 97 98 98 90 85 77 62 58 60 46 23 12 7 4 5 5 5
22 22 23 24 24 25 29 33 41 49 50 60 78 84 84 89 92 89 88 92 98 99 100 100 100 100 99 100 100 98 99 100 99 99 100 99 99 99 98 98 90 73 70 80 74 52 29 14 7 4 4 6
Wind_Speed
27 29 29 29 29 30 30 29 30 30 31 31 30 31 33 33 32 30 30 30 29 27 23 20 17 16 17 16 15 14 14 14 14 15 15 15 16 16 17 18 18 19 19 19 19 19 19 19 20 20 20 20
25 28 28 27 27 28 28 29 31 29 27 27 27 27 29 31 33 31 31 33 33 32 29 25 21 18 17 15 15 14 12 11 11 12 13 14 15 16 16 17 18 18 19 19 19 19 19 19 20 20 20 21
25 27 29 28 26 25 24 26 28 26 24 23 23 23 24 26 29 30 30 32 33 33 31 27 24 21 18 16 15 15 14 11 10 10 11 12 13 14 16 17 18 18 18 19 19 19 19 19 20 20 21 22
26 27 28 27 25 23 22 23 24 23 22 21 20 18 18 20 23 25 26 29 31 30 28 27 26 25 22 20 18 17 16 13 11 10 10 11 12 13 15 17 18 18 19 19 19 19 20 20 20 20 21 22
27 27 28 28 27 26 25 23 24 23 21 20 18 17 16 16 17 19 20 23 28 29 27 26 26 25 24 23 22 21 19 16 12 9 10 11 12 13 15 17 18 18 19 19 20 20 21 20 20 21 22 23
28 29 29 30 30 29 29 27 25 23 21 20 19 18 18 17 16 16 17 19 23 26 26 27 27 26 26 26 27 26 23 20 15 11 11 12 14 16 16 16 17 18 19 20 21 21 21 21 22 22 23 24
30 30 30 33 34 32 30 29 27 22 20 20 20 20 21 21 19 18 17 18 20 22 23 25 26 27 28 28 29 29 26 24 20 16 15 15 15 17 17 17 18 18 19 20 21 21 21 22 23 23 24 25
32 33 33 35 36 34 30 27 26 24 22 22 21 21 21 21 21 21 20 19 20 20 20 20 21 22 25 25 26 27 25 25 24 22 21 20 20 21 22 22 22 21 21 21 21 21 21 23 24 24 24 25
33 35 36 38 39 36 32 28 26 24 23 23 22 22 21 21 21 22 23 21 20 18 17 17 17 17 19 20 22 22 21 21 22 22 21 21 23 24 24 25 25 25 25 24 24 23 23 24 24 24 24 24
32 35 37 41 41 39 36 31 27 23 22 25 25 24 23 22 22 22 23 23 22 20 18 17 16 15 15 17 19 19 19 19 18 18 19 21 22 23 24 25 25 26 27 27 26 26 26 26 25 25 24 24
29 32 37 43 42 41 39 34 30 24 23 27 26 25 25 24 23 23 23 24 24 24 23 21 20 18 17 18 18 18 18 18 18 17 19 22 26 26 26 26 27 27 28 28 28 28 28 28 27 26 25 25
28 29 35 43 43 40 36 33 31 27 27 30 27 24 25 24 23 24 24 26 26 26 27 26 25 24 23 22 22 21 20 20 20 20 21 24 27 29 29 28 28 29 29 29 29 30 29 29 28 26 26 25
27 29 32 37 39 38 35 34 33 29 29 30 26 23 24 24 23 24 25 26 27 27 28 28 27 26 26 27 27 26 24 25 25 24 25 26 28 29 29 29 29 30 30 30 29 29 29 28 27 26 26 25
26 29 32 34 35 34 33 34 34 32 31 29 25 22 23 22 22 24 26 27 27 27 27 27 28 27 27 29 30 29 28 28 28 27 27 28 28 29 29 29 28 29 28 28 28 28 28 27 27 27 26 26
27 29 33 34 34 31 29 31 32 30 30 29 27 23 22 22 22 23 24 25 27 26 25 25 25 25 26 27 27 27 27 28 28 27 27 27 27 28 28 28 28 27 27 27 27 27 27 27 27 27 27 27
29 30 32 33 32 31 30 30 30 28 28 30 30 27 25 24 23 23 23 24 26 25 24 24 25 24 23 23 24 25 25 26 27 27 27 27 27 28 28 28 28 27 27 27 27 28 28 28 28 28 28 28
30 31 34 36 34 31 31 29 29 29 29 30 30 31 30 27 26 25 25 26 27 27 27 27 28 27 27 26 25 24 24 26 27 27 27 28 28 29 29 29 29 28 28 28 29 30 30 30 30 30 30 29
31 32 34 38 35 32 33 33 30 29 30 30 29 31 32 30 29 29 29 30 31 32 33 33 33 33 32 31 29 27 26 27 27 27 27 29 30 30 30 30 31 30 30 30 31 32 32 32 32 31 31 31
31 32 34 36 36 36 39 39 35 32 32 31 30 31 32 32 32 32 32 33 34 35 36 37 37 35 34 32 31 29 29 29 29 28 28 30 31 31 31 31 32 32 31 32 33 33 33 33 33 32 32 32
31 32 34 35 36 38 42 42 41 39 38 36 34 34 35 34 36 35 33 34 34 35 36 36 36 35 35 34 33 32 32 32 32 31 31 32 32 33 33 33 33 33 33 33 34 34 35 35 34 34 34 33
32 33 34 35 36 37 40 42 43 43 43 43 40 39 41 40 40 37 34 34 35 34 35 35 35 35 36 36 36 35 35 35 34 34 33 34 34 34 35 34 34 35 34 34 35 36 36 36 35 36 35 34
32 32 34 35 35 36 40 42 43 44 44 44 43 41 43 43 41 39 36 35 36 36 36 34 34 35 35 36 36 35 34 34 34 34 34 35 36 36 36 35 35 36 36 36 36 37 37 37 37 37 36 36
30 31 34 34 34 36 40 43 44 46 44 42 43 42 42 42 41 41 40 37 37 38 37 36 34 34 34 34 35 34 33 33 33 33 34 36 37 37 37 36 36 37 38 37 37 37 38 38 38 38 37 37
27 31 35 35 35 36 39 42 43 45 43 41 42 41 42 44 43 43 44 41 38 38 38 37 36 36 35 35 35 35 35 34 33 32 33 36 37 38 38 37 37 38 39 38 38 39 39 39 39 39 38 37
30 30 33 35 37 38 38 41 41 43 42 40 40 42 43 45 44 45 45 44 41 41 41 38 38 39 37 37 38 37 36 36 36 35 33 34 37 39 39 38 38 38 39 40 40 40 40 40 41 41 40 39
39 36 35 36 37 38 40 40 39 40 42 40 40 43 44 45 45 45 45 45 44 44 44 41 41 42 39 38 39 37 36 38 40 38 35 35 35 36 38 39 39 39 40 40 41 41 41 42 42 42 42 41
40 41 41 39 38 39 40 40 38 38 40 42 42 43 44 45 46 45 45 45 45 45 46 45 44 42 39 39 38 36 38 41 41 39 38 39 35 33 36 40 40 40 39 40 41 42 44 44 43 43 44 44
33 38 41 42 42 42 41 41 41 39 40 43 45 46 46 47 47 47 46 46 46 47 48 47 46 44 40 39 38 36 38 42 42 40 41 41 37 34 35 38 39 39 38 40 42 44 45 44 45 46 46 44
26 30 35 39 41 43 43 42 42 42 43 44 44 45 46 46 46 48 48 47 47 47 45 45 46 46 43 40 40 38 38 42 42 40 42 43 39 35 34 35 35 37 38 40 41 43 45 46 47 47 45 44
18 21 27 32 36 39 41 42 41 42 44 44 44 44 44 44 45 46 48 48 49 48 45 43 43 45 45 43 44 41 38 40 41 41 43 43 41 38 37 37 38 38 39 40 41 43 44 46 48 47 46 46
19 19 20 24 28 33 36 39 40 40 41 42 43 42 40 41 43 44 46 47 48 48 46 44 43 45 45 44 46 45 40 40 41 42 43 43 44 43 40 41 44 42 40 41 42 42 43 45 48 49 49 48
Wind_Direction
250 254 257 259 254 241 237 240 241 247 254 258 260 260 259 256 253 245 235 227 218 208 199 197 201 208 212 216 220 223 225 228 234 234 231 232 234 235 237 239 239 239 237 236 235 233 233 234 235 236 238 240
249 256 257 259 260 254 249 246 244 249 253 255 258 262 261 256 251 246 238 231 223 213 204 198 199 203 208 213 216 217 220 229 241 243 238 236 236 237 238 239 240 240 239 238 236 235 234 234 235 236 238 240
249 253 254 257 261 258 253 250 247 250 254 259 263 264 266 261 254 249 240 233 226 217 209 205 205 208 211 216 219 219 219 229 244 249 248 242 240 240 241 241 241 242 241 240 239 238 237 237 238 239 240 242
251 251 253 256 259 254 248 250 249 251 258 263 264 266 272 268 259 252 243 234 226 219 214 214 216 217 218 220 224 227 225 229 239 252 263 259 250 246 245 245 244 244 244 244 244 244 243 242 242 243 244 246
245 248 251 252 253 249 247 253 253 254 258 259 262 266 275 274 262 254 249 241 231 224 222 223 226 226 225 225 228 232 231 227 228 246 269 271 269 259 251 250 248 248 248 249 249 249 249 248 247 247 248 249
239 241 245 245 249 249 251 255 253 255 257 257 262 266 272 274 266 257 252 250 244 236 231 231 234 233 232 231 231 234 235 231 224 230 250 259 272 271 263 261 258 255 253 253 253 253 253 252 251 250 251 251
242 241 242 242 246 251 254 256 253 254 257 257 260 264 270 270 267 262 252 249 249 245 239 238 239 238 239 240 238 237 238 236 229 228 237 245 262 268 268 270 270 267 263 259 257 256 256 255 254 252 251 252
243 241 244 244 245 250 251 251 250 250 254 255 257 262 267 268 268 269 264 254 247 246 244 242 243 242 243 245 243 242 241 238 233 232 237 244 253 259 264 268 270 271 270 267 264 261 259 257 256 255 253 253
242 241 247 250 246 247 247 245 246 250 252 249 253 261 263 265 268 271 272 268 259 254 253 252 250 247 245 246 247 247 245 243 238 238 242 249 252 256 259 262 264 264 266 267 267 268 265 262 260 258 256 255
248 246 250 251 248 245 243 245 244 244 247 246 252 259 258 260 262 264 267 270 269 266 265 263 259 256 253 251 252 252 252 250 248 248 254 260 261 261 261 261 262 261 262 262 263 264 263 263 262 259 257 254
258 256 252 247 249 248 243 246 245 242 243 244 249 255 257 258 258 258 258 261 263 265 266 267 266 265 266 265 264 263 260 257 254 255 257 259 261 261 260 259 259 259 258 258 258 257 257 257 256 254 251 248
261 262 254 242 243 245 245 252 250 247 246 244 248 253 256 257 256 256 255 256 256 257 259 262 265 266 268 269 269 269 266 261 259 259 257 254 255 255 255 254 254 254 253 252 252 252 252 251 249 246 243 240
254 258 257 246 244 247 251 252 247 248 250 248 251 256 260 257 255 255 255 256 255 255 256 258 262 262 264 263 263 264 263 262 261 260 257 253 251 250 250 250 250 250 250 249 248 247 247 245 242 239 235 233
252 252 255 255 256 258 261 256 253 260 260 251 249 255 263 258 254 257 256 258 259 259 259 259 261 261 261 260 259 258 257 258 258 256 255 252 250 249 249 250 249 250 250 249 247 245 243 240 237 233 232 230
257 251 251 256 258 259 267 268 266 269 265 257 253 254 260 256 253 258 259 260 261 262 263 264 264 263 263 263 261 257 254 255 256 255 253 253 252 251 252 251 251 251 252 250 247 244 240 236 234 232 232 232
262 257 251 251 253 255 262 268 268 266 266 266 261 256 258 255 252 257 260 262 262 262 261 262 263 265 266 265 264 261 258 258 259 258 256 255 254 253 254 253 252 252 251 249 245 242 239 235 233 233 233 234
259 260 253 247 246 250 258 263 262 259 263 268 264 258 257 254 251 252 256 260 263 263 262 262 263 264 265 265 265 263 262 262 263 262 260 259 256 254 254 253 253 252 250 247 243 240 237 236 235 234 235 236
251 255 256 254 248 249 255 257 256 255 256 261 259 255 254 254 252 250 252 256 260 263 264 265 265 266 266 265 264 262 262 262 263 263 263 261 259 256 254 252 252 250 249 246 241 239 237 237 237 237 237 238
248 249 252 255 253 252 255 254 254 254 252 254 253 251 251 254 255 252 252 255 259 263 265 266 267 267 266 265 264 263 262 262 262 262 261 261 260 258 255 252 250 249 247 245 242 239 238 239 239 239 240 241
250 248 247 249 249 251 256 258 257 254 251 250 248 250 252 253 255 254 254 258 261 264 266 267 268 269 267 266 264 264 264 263 263 262 260 258 257 256 255 252 250 249 247 244 242 240 239 240 241 241 242 242
250 250 247 245 245 246 252 258 259 260 258 255 252 253 255 257 258 257 257 261 262 263 265 266 268 269 269 268 266 264 265 265 265 265 261 259 257 255 254 252 250 249 248 245 242 241 241 241 242 243 243 243
251 252 251 246 244 243 246 249 254 259 261 263 263 260 258 262 262 258 257 261 262 262 263 265 266 268 270 271 270 268 267 267 266 265 263 260 258 256 255 253 251 249 248 245 243 242 242 242 242 243 243 244
258 254 253 249 243 242 244 243 246 250 253 260 266 264 262 264 264 262 260 259 260 260 261 264 266 267 268 271 274 274 272 269 268 266 264 261 258 256 254 253 251 250 249 247 245 244 243 243 243 244 244 245
258 256 255 254 248 243 245 246 247 248 248 251 256 259 263 265 265 267 266 261 258 259 259 261 265 266 267 269 272 274 272 269 268 266 265 262 258 255 252 252 251 250 250 248 246 245 243 243 243 244 245 245
246 247 251 254 254 249 247 248 249 249 247 247 250 254 257 260 260 262 265 264 260 258 256 255 260 264 265 267 269 271 270 266 264 265 268 265 262 259 255 253 252 251 251 248 246 246 245 245 245 245 245 244
248 246 244 245 250 252 250 248 249 251 249 246 248 251 252 254 256 258 262 264 262 259 257 252 255 260 262 265 266 266 266 265 265 267 272 271 266 264 261 257 255 253 251 250 248 248 247 246 245 245 245 244
256 255 253 249 248 250 251 248 246 248 248 245 244 246 248 249 251 255 258 261 262 262 260 253 250 254 259 261 261 261 265 265 265 269 273 272 267 265 264 260 257 255 254 252 250 247 247 246 246 245 245 244
260 259 259 259 257 257 257 253 247 246 246 245 243 243 245 245 246 250 252 255 259 261 263 260 253 249 252 256 257 261 265 262 264 269 271 270 264 262 263 260 259 259 257 254 251 248 248 247 246 246 245 245
266 262 260 260 261 262 263 261 255 251 249 248 248 246 246 247 248 249 249 251 253 255 259 263 260 254 250 254 258 259 258 259 263 266 266 266 263 263 264 261 261 261 258 257 254 251 250 247 247 247 247 247
283 275 267 263 262 263 264 264 262 257 253 250 249 248 249 250 251 252 251 250 250 251 252 255 260 260 256 257 260 256 249 253 260 260 261 265 265 265 264 264 266 265 261 260 258 255 252 250 250 249 248 247
298 294 287 277 271 266 263 263 262 260 257 253 248 246 248 252 253 252 251 250 250 252 252 250 252 255 256 257 259 256 249 248 254 257 259 263 265 264 260 262 268 267 264 261 260 259 257 254 252 250 249 247